Eagle River, WI

10:17 AM CDT on April 20, 2018 (GMT -0500)
Eagle River Union

Weather History for KEGV - September, 2012

Change the Weather History Date:

Wednesday, September 5, 2012

  Actual Average Record
Temperature  
Mean Temperature 60 °F -  
Max Temperature 68 °F 71 °F 89 °F (1998)
Min Temperature 51 °F 47 °F 35 °F (2000)
Degree Days  
Heating Degree Days 6    
Growing Degree Days 10 (Base 50)    
Moisture  
Dew Point 57 °F    
Average Humidity 88    
Maximum Humidity 100    
Minimum Humidity 52    
Precipitation  
Precipitation 0.27 in - - ()
Sea Level Pressure  
Sea Level Pressure 29.83 in    
Wind  
Wind Speed 3 mph (West)    
Max Wind Speed 13 mph    
Max Gust Speed 21 mph    
Visibility 8 miles    
Events Fog , Rain    
Averages and records for this station are not official NWS values.
T = Trace of Precipitation, MM = Missing Value Source: NWS Daily Summary

Daily Weather History Graph

Daily Weather History Graph

Search for Another Location

Airport or City:

Astronomy

Sep. 05, 2012 Rise Set
Actual Time 6:23 AM CDT 7:26 PM CDT
Civil Twilight 5:52 AM CDT 7:57 PM CDT
Nautical Twilight 5:16 AM CDT 8:33 PM CDT
Astronomical Twilight 4:37 AM CDT 9:12 PM CDT
Moon 9:36 PM CDT (9/5) 11:47 AM CDT (9/5)
Length of Visible Light 14h 04m
Length of Day
13h 03m
Waning Gibbous, 76% of the Moon is Illuminated
Sep 5
Waning Gibbous
Sep 8
Last Quarter
Sep 15
New
Sep 22
First Quarter
Sep 29
Full

Hourly Weather History & Observations

Time (CDT) Temp. Dew Point Humidity Pressure Visibility Wind Dir Wind Speed Gust Speed Precip Events Conditions
12:15 AM 64.4 °F 64.4 °F 100% 29.82 in 0.2 mi Calm Calm - N/A Fog Fog
12:35 AM 60.8 °F 60.8 °F 100% 29.82 in 0.5 mi Calm Calm - N/A Fog Fog
1:15 AM 62.6 °F 62.6 °F 100% 29.83 in 0.2 mi SSW 3.5 mph - N/A Fog Fog
1:35 AM 62.6 °F 62.6 °F 100% 29.82 in 7.0 mi SE 3.5 mph - N/A   Scattered Clouds
1:55 AM 62.6 °F 62.6 °F 100% 29.81 in 7.0 mi Calm Calm - N/A   Clear
2:15 AM 60.8 °F 60.8 °F 100% 29.81 in 1.0 mi Calm Calm - N/A   Mist
2:35 AM 60.8 °F 60.8 °F 100% 29.82 in 0.8 mi South 3.5 mph - N/A   Mostly Cloudy
2:55 AM 60.8 °F 60.8 °F 100% 29.83 in 10.0 mi SE 4.6 mph - N/A   Clear
3:15 AM 60.8 °F 59.0 °F 94% 29.83 in 10.0 mi SSE 3.5 mph - N/A   Clear
3:35 AM 60.8 °F 60.8 °F 100% 29.84 in 10.0 mi SSE 4.6 mph - N/A   Clear
3:55 AM 60.8 °F 59.0 °F 94% 29.82 in 10.0 mi Calm Calm - N/A   Clear
4:15 AM 59.0 °F 59.0 °F 100% 29.82 in 10.0 mi Calm Calm - N/A   Clear
4:55 AM 59.0 °F 59.0 °F 100% 29.81 in 10.0 mi Calm Calm - N/A   Scattered Clouds
6:15 AM 59.0 °F 59.0 °F 100% 29.81 in 7.0 mi Calm Calm - N/A   Scattered Clouds
6:35 AM 59.0 °F 59.0 °F 100% 29.80 in 5.0 mi Calm Calm - N/A   Scattered Clouds
6:55 AM 59.0 °F 59.0 °F 100% 29.80 in 5.0 mi Calm Calm - N/A   Clear
7:15 AM 59.0 °F 59.0 °F 100% 29.81 in 5.0 mi SSW 3.5 mph - N/A   Clear
8:15 AM 60.8 °F 59.0 °F 94% 29.81 in 10.0 mi WSW 8.1 mph - N/A   Scattered Clouds
8:35 AM 60.8 °F 59.0 °F 94% 29.81 in 10.0 mi WSW 9.2 mph - N/A   Mostly Cloudy
8:55 AM 62.6 °F 57.2 °F 82% 29.81 in 10.0 mi West 8.1 mph - N/A   Mostly Cloudy
9:15 AM 62.6 °F 59.0 °F 88% 29.81 in 10.0 mi West 4.6 mph - N/A   Overcast
9:35 AM 62.6 °F 59.0 °F 88% 29.82 in 10.0 mi Calm Calm - N/A   Mostly Cloudy
9:55 AM 62.6 °F 59.0 °F 88% 29.82 in 10.0 mi SW 3.5 mph - N/A Rain Light Rain
10:35 AM 60.8 °F 60.8 °F 100% 29.84 in 5.0 mi NNW 11.5 mph 17.3 mph 0.20 in Rain Light Rain
10:55 AM 62.6 °F 60.8 °F 94% 29.84 in 10.0 mi NNW 5.8 mph - 0.20 in   Light Drizzle
11:15 AM 62.6 °F 60.8 °F 94% 29.84 in 10.0 mi NNW 6.9 mph - N/A   Overcast
11:55 AM 64.4 °F 60.8 °F 88% 29.84 in 10.0 mi NNW 11.5 mph - 0.01 in   Overcast
12:15 PM 60.8 °F 55.4 °F 82% 29.87 in 10.0 mi NW 11.5 mph 20.7 mph N/A   Overcast
12:35 PM 59.0 °F 55.4 °F 88% 29.85 in 10.0 mi NNW 12.7 mph 20.7 mph N/A Rain Light Rain
12:55 PM 59.0 °F 55.4 °F 88% 29.86 in 10.0 mi NNW 9.2 mph 17.3 mph N/A   Light Drizzle
1:35 PM 59.0 °F 57.2 °F 94% 29.82 in 10.0 mi East 5.8 mph - 0.06 in   Scattered Clouds
1:55 PM 60.8 °F 55.4 °F 82% 29.84 in 10.0 mi North 5.8 mph - 0.06 in   Clear
2:15 PM 62.6 °F 55.4 °F 77% 29.84 in 10.0 mi NNW 8.1 mph - N/A   Clear
2:55 PM 64.4 °F 53.6 °F 68% 29.83 in 10.0 mi NNE 3.5 mph - N/A   Scattered Clouds
3:15 PM 68.0 °F 53.6 °F 60% 29.83 in 10.0 mi North 5.8 mph - N/A   Scattered Clouds
3:35 PM 66.2 °F 53.6 °F 64% 29.83 in 10.0 mi Calm Calm - N/A   Scattered Clouds
3:55 PM 68.0 °F 51.8 °F 56% 29.83 in 10.0 mi Calm Calm - N/A   Mostly Cloudy
4:35 PM 68.0 °F 50.0 °F 52% 29.82 in 10.0 mi WSW 3.5 mph - N/A   Clear
4:55 PM 68.0 °F 50.0 °F 52% 29.83 in 10.0 mi WSW 4.6 mph - N/A   Scattered Clouds
5:15 PM 68.0 °F 51.8 °F 56% 29.83 in 10.0 mi SW 5.8 mph - N/A   Scattered Clouds
5:55 PM 68.0 °F 51.8 °F 56% 29.84 in 10.0 mi WSW 6.9 mph - N/A   Scattered Clouds
6:15 PM 68.0 °F 51.8 °F 56% 29.83 in 10.0 mi WSW 5.8 mph - N/A   Clear
6:35 PM 64.4 °F 51.8 °F 64% 29.83 in 10.0 mi WSW 5.8 mph - N/A   Clear
7:15 PM 62.6 °F 51.8 °F 68% 29.83 in 10.0 mi Calm Calm - N/A   Clear
7:35 PM 59.0 °F 53.6 °F 82% 29.83 in 10.0 mi Calm Calm - N/A   Clear
7:55 PM 59.0 °F 55.4 °F 88% 29.84 in 10.0 mi Calm Calm - N/A   Clear
8:15 PM 55.4 °F 55.4 °F 100% 29.84 in 10.0 mi Calm Calm - N/A   Clear
8:55 PM 53.6 °F 53.6 °F 100% 29.84 in 10.0 mi Calm Calm - N/A   Clear
9:15 PM 53.6 °F 53.6 °F 100% 29.85 in 10.0 mi Calm Calm - N/A   Mostly Cloudy
9:35 PM 53.6 °F 53.6 °F 100% 29.85 in 10.0 mi Calm Calm - N/A   Mostly Cloudy
9:55 PM 51.8 °F 51.8 °F 100% 29.85 in 10.0 mi Calm Calm - N/A   Scattered Clouds
10:15 PM 53.6 °F 53.6 °F 100% 29.85 in 10.0 mi Calm Calm - N/A   Mostly Cloudy
10:35 PM 53.6 °F 53.6 °F 100% 29.85 in 10.0 mi Calm Calm - N/A   Mostly Cloudy
10:55 PM 51.8 °F 51.8 °F 100% 29.86 in 10.0 mi Calm Calm - N/A   Scattered Clouds
11:15 PM 51.8 °F 51.8 °F 100% 29.86 in 0.5 mi Calm Calm - N/A Fog Fog
11:35 PM 51.8 °F 51.8 °F 100% 29.86 in 2.0 mi Calm Calm - N/A   Scattered Clouds